Date String (YYYY-MM-DD hh:mm:ss) UTC,Instrument flags,absolute air pressure of the measurement (hPa),sample flow rate (lpm),inlet stack bypass flow (lpm),air temperature of the measurement (°C),ambient temperature measured by the external sensor (°C),aerosol sample conditioner tube jacket temperature (°C),OPC LED temperature (°C),internal box temperature (°C),relative humidity of the measurement (%),span deviation,mass concentration of particles derived from Lorenz-Mie calculation of OPC scattering (μg/m³),mass concentration of particles derived from Lorenz-Mie calculation of OPC scattering (μg/m³),mass concentration of particles derived from Lorenz-Mie calculation of OPC scattering (μg/m³)
DateTimeUTC,F1_M11,P_M11,Q1_M11,Q2_M11,T1_M11,T2_M11,T3_M11,T4_M11,T5_M11,U1_M11,ZSPAN_M11,X0_M11,X2_M11,X1_M11
2023-10-22 16:00:00,SystemResetWarning,0827.1,5.00,000.00,029.0,026.3,000.0,037.6,030.4,16.2,0000.0,0020.74,0004.70,0002.60
2023-10-22 16:01:00,SystemResetWarning,0827.2,5.00,000.00,029.0,026.6,000.0,037.6,030.4,16.2,0000.0,0020.16,0004.79,0002.61
2023-10-22 16:02:00,SystemResetWarning,0827.1,5.00,000.00,029.0,026.8,000.0,037.6,030.5,16.3,0000.0,0020.12,0004.77,0002.60
2023-10-22 16:03:00,SystemResetWarning,0827.2,5.00,000.00,029.0,027.0,000.0,037.6,030.5,16.3,0000.0,0020.38,0004.74,0002.61
2023-10-22 16:04:00,SystemResetWarning,0827.1,5.00,000.00,029.0,027.2,000.0,037.5,030.5,16.2,0000.0,0019.38,0004.86,0002.64
2023-10-22 16:05:00,SystemResetWarning,0827.1,5.00,000.00,029.0,027.3,000.0,037.5,030.5,16.3,0000.0,0018.91,0004.87,0002.64
2023-10-22 16:06:00,SystemResetWarning,0827.1,5.00,000.00,029.0,027.4,000.0,037.5,030.6,16.4,0000.0,0016.92,0004.84,0002.65
2023-10-22 16:07:00,SystemResetWarning,0827.2,5.00,000.00,029.0,027.5,000.0,037.5,030.6,16.5,0000.0,0016.01,0004.83,0002.66
2023-10-22 16:08:00,SystemResetWarning,0827.1,5.00,000.00,029.1,027.6,000.0,037.5,030.6,16.5,0000.0,0014.85,0004.76,0002.67
2023-10-22 16:09:00,SystemResetWarning,0827.1,5.00,000.00,029.1,027.7,000.0,037.5,030.7,16.5,0000.0,0015.14,0004.76,0002.69
2023-10-22 16:10:00,SystemResetWarning,0827.1,5.00,000.00,029.1,027.7,000.0,037.5,030.7,16.5,0000.0,0015.22,0004.79,0002.70
2023-10-22 16:11:00,SystemResetWarning,0827.1,4.99,000.00,029.1,027.8,000.0,037.5,030.7,16.5,0000.0,0015.76,0004.78,0002.71
2023-10-22 16:12:00,SystemResetWarning,0827.1,5.00,000.00,029.1,027.8,000.0,037.6,030.7,16.6,0000.0,0016.54,0004.83,0002.72
2023-10-22 16:13:00,SystemResetWarning,0827.1,4.99,000.00,029.2,027.9,000.0,037.6,030.8,16.5,0000.0,0016.78,0004.84,0002.73
2023-10-22 16:14:00,SystemResetWarning,0827.1,5.00,000.00,029.2,027.9,000.0,037.6,030.8,16.4,0000.0,0016.42,0004.86,0002.76
2023-10-22 16:15:00,SystemResetWarning,0827.1,5.00,000.00,029.2,028.0,000.0,037.6,030.8,16.4,0000.0,0016.42,0004.80,0002.77
2023-10-22 16:16:00,SystemResetWarning,0827.0,5.00,000.00,029.2,028.0,000.0,037.6,030.8,16.4,0000.0,0016.78,0004.80,0002.79
2023-10-22 16:17:00,SystemResetWarning,0827.0,5.00,000.00,029.3,028.0,000.0,037.6,030.9,16.5,0000.0,0017.33,0004.82,0002.80
2023-10-22 16:18:00,SystemResetWarning,0827.0,5.00,000.00,029.3,028.1,000.0,037.6,030.9,16.4,0000.0,0017.07,0004.79,0002.79
2023-10-22 16:19:00,SystemResetWarning,0827.1,5.00,000.00,029.3,027.6,000.0,037.6,031.0,16.1,0000.0,0017.45,0004.82,0002.80
2023-10-22 16:20:00,SystemResetWarning,0827.0,5.00,000.00,029.3,025.8,000.0,037.6,030.8,16.2,0000.0,0017.66,0004.85,0002.77
2023-10-22 16:21:00,SystemResetWarning,0827.0,5.00,000.00,029.2,024.7,000.0,037.5,030.6,16.2,0000.0,0016.47,0004.80,0002.74
2023-10-22 16:22:00,SystemResetWarning,0826.9,5.01,000.00,029.1,024.8,000.0,037.5,030.4,16.2,0000.0,0016.35,0004.86,0002.75
2023-10-22 16:23:00,SystemResetWarning,0826.9,5.01,000.00,028.9,025.1,000.0,037.5,030.3,16.5,0000.0,0015.33,0004.79,0002.75
2023-10-22 16:24:00,SystemResetWarning,0827.0,4.99,000.00,028.9,025.5,000.0,037.5,030.3,16.7,0000.0,0015.50,0004.76,0002.77
2023-10-22 16:25:00,SystemResetWarning,0827.0,5.00,000.00,028.8,025.9,000.0,037.5,030.3,16.7,0000.0,0016.11,0004.78,0002.75
2023-10-22 16:26:00,SystemResetWarning,0827.0,5.00,000.00,028.8,026.2,000.0,037.4,030.3,16.7,0000.0,0016.61,0004.78,0002.74
2023-10-22 16:27:00,SystemResetWarning,0827.0,5.00,000.00,028.8,026.5,000.0,037.4,030.3,16.6,0000.0,0016.79,0004.87,0002.73
2023-10-22 16:28:00,SystemResetWarning,0826.9,5.00,000.00,028.8,026.7,000.0,037.4,030.4,16.7,0000.0,0016.48,0004.92,0002.71
2023-10-22 16:29:00,SystemResetWarning,0827.0,5.00,000.00,028.8,026.9,000.0,037.4,030.4,16.6,0000.0,0016.52,0004.93,0002.70
2023-10-22 16:30:00,SystemResetWarning,0827.0,5.00,000.00,028.8,027.1,000.0,037.4,030.4,16.5,0000.0,0016.86,0004.93,0002.69
2023-10-22 16:31:00,SystemResetWarning,0827.0,5.00,000.00,028.9,027.3,000.0,037.4,030.5,16.5,0000.0,0016.33,0004.91,0002.70
2023-10-22 16:32:00,SystemResetWarning,0827.0,5.00,000.00,028.9,027.4,000.0,037.4,030.5,16.4,0000.0,0016.91,0004.95,0002.72
2023-10-22 16:33:00,SystemResetWarning,0826.9,5.00,000.00,028.9,027.5,000.0,037.4,030.5,16.3,0000.0,0016.76,0004.92,0002.70
2023-10-22 16:34:00,SystemResetWarning,0826.9,5.00,000.00,028.9,027.6,000.0,037.4,030.6,16.3,0000.0,0016.94,0004.91,0002.70
2023-10-22 16:35:00,SystemResetWarning,0827.0,5.00,000.00,029.0,027.7,000.0,037.4,030.6,16.2,0000.0,0017.49,0004.92,0002.68
2023-10-22 16:36:00,SystemResetWarning,0827.0,5.00,000.00,029.0,027.7,000.0,037.4,030.7,16.0,0000.0,0018.38,0004.94,0002.68
2023-10-22 16:37:00,SystemResetWarning,0827.0,5.00,000.00,029.0,027.8,000.0,037.4,030.7,16.0,0000.0,0018.35,0004.98,0002.68
2023-10-22 16:38:00,SystemResetWarning,0826.9,5.00,000.00,029.1,027.8,000.0,037.4,030.7,16.0,0000.0,0018.71,0004.91,0002.67
2023-10-22 16:39:00,SystemResetWarning,0826.9,5.00,000.00,029.1,027.9,000.0,037.5,030.7,15.9,0000.0,0019.56,0004.82,0002.67
2023-10-22 16:40:00,SystemResetWarning,0826.9,5.00,000.00,029.1,028.0,000.0,037.5,030.8,15.8,0000.0,0019.44,0004.79,0002.68
2023-10-22 16:41:00,SystemResetWarning,0826.9,5.00,000.00,029.1,028.0,000.0,037.5,030.8,16.0,0000.0,0019.63,0004.79,0002.68
2023-10-22 16:42:00,SystemResetWarning,0826.9,5.00,000.00,029.2,027.9,000.0,037.5,030.8,16.0,0000.0,0020.14,0004.73,0002.67
2023-10-22 16:43:00,SystemResetWarning,0826.9,4.98,000.00,029.2,026.6,000.0,037.5,030.8,16.1,0000.0,0019.10,0004.66,0002.65
2023-10-22 16:44:00,SystemResetWarning,0826.8,5.01,000.00,029.1,024.9,000.0,037.4,030.6,16.2,0000.0,0018.93,0004.63,0002.66
2023-10-22 16:45:00,SystemResetWarning,0826.9,5.02,000.00,029.0,024.7,000.0,037.3,030.4,16.3,0000.0,0018.97,0004.67,0002.67
2023-10-22 16:46:00,SystemResetWarning,0826.8,5.01,000.00,028.9,025.0,000.0,037.4,030.2,16.5,0000.0,0019.06,0004.74,0002.67
2023-10-22 16:47:00,SystemResetWarning,0826.8,5.00,000.00,028.8,025.3,000.0,037.4,030.2,16.6,0000.0,0018.27,0004.72,0002.67
2023-10-22 16:48:00,SystemResetWarning,0826.8,5.00,000.00,028.7,025.7,000.0,037.3,030.2,16.7,0000.0,0018.72,0004.70,0002.69
2023-10-22 16:49:00,SystemResetWarning,0826.8,5.00,000.00,028.7,026.1,000.0,037.3,030.3,16.8,0000.0,0019.82,0004.75,0002.69
2023-10-22 16:50:00,SystemResetWarning,0826.8,4.99,000.00,028.7,026.4,000.0,037.3,030.3,16.8,0000.0,0018.96,0004.77,0002.70
2023-10-22 16:51:00,SystemResetWarning,0826.8,5.00,000.00,028.7,026.7,000.0,037.3,030.3,16.6,0000.0,0019.57,0004.73,0002.71
2023-10-22 16:52:00,SystemResetWarning,0826.8,5.00,000.00,028.8,026.9,000.0,037.3,030.4,16.4,0000.0,0019.93,0004.71,0002.70
2023-10-22 16:53:00,SystemResetWarning,0826.8,4.99,000.00,028.8,027.1,000.0,037.3,030.4,16.6,0000.0,0019.09,0004.77,0002.72
2023-10-22 16:54:00,SystemResetWarning,0826.7,4.99,000.00,028.8,027.2,000.0,037.3,030.5,16.2,0000.0,0019.36,0004.81,0002.75
2023-10-22 16:55:00,SystemResetWarning,0826.8,5.00,000.00,028.8,027.3,000.0,037.3,030.5,16.0,0000.0,0020.81,0004.84,0002.76
2023-10-22 16:56:00,SystemResetWarning,0826.8,5.00,000.00,028.8,027.5,000.0,037.3,030.5,16.2,0000.0,0020.85,0004.83,0002.75
2023-10-22 16:57:00,SystemResetWarning,0826.8,5.00,000.00,028.9,027.6,000.0,037.3,030.6,16.3,0000.0,0020.36,0004.79,0002.75
2023-10-22 16:58:00,SystemResetWarning,0826.8,5.00,000.00,028.9,027.7,000.0,037.3,030.6,16.2,0000.0,0020.00,0004.77,0002.75
2023-10-22 16:59:00,SystemResetWarning,0826.8,4.99,000.00,028.9,027.7,000.0,037.3,030.7,16.1,0000.0,0019.05,0004.78,0002.75
